Regional Weather Roundup
Issued by NWS

Home | Current Version | Previous Version | Text Only | Print | Product List | Glossary On
Versions: 1 2 3 4 5 6 7 8 9 10 11 12 13 14 15 16 17 18 19 20 21 22 23 24 25 26 27 28 29 30 31 32 33 34 35 36 37 38 39 40 41 42 43 44 45 46 47 48 49 50
000
ASUS43 KOAX 300902
RWRNE

WEATHER ROUNDUP FOR NEBRASKA
NATIONAL WEATHER SERVICE OMAHA NE
400 AM CDT TUE AUG 30 2016

NOTES: SATELLITE DATA IS BEING USED TO AUGMENT CLOUD COVER ABOVE
       12000 FEET.
       "FAIR" INDICATES FEW OR NO CLOUDS BELOW 12,000 FEET WITH NO
       SIGNIFICANT WEATHER AND/OR OBSTRUCTIONS TO VISIBILITY.

  * THESE STATIONS DO NOT REPORT WEATHER SUCH AS RAIN...SNOW OR FOG.

NEZ001>004-019>022-054>056-301000-
NEBRASKA PANHANDLE

CITY           SKY/WX    TMP DP  RH WIND       PRES   REMARKS
SCOTTSBLUFF    MOCLDY    61  58  90 CALM      30.27S
ALLIANCE       CLEAR     53  52  96 CALM      30.26F
CHADRON        CLEAR     57  54  89 W3        30.24S
KIMBALL        PTCLDY    54  52  92 NW8       30.31F
SIDNEY         MOCLDY    58  57  97 CALM      30.30S
$$

NEZ057>060-069>072-079>082-301000-
SOUTHWEST NEBRASKA

CITY           SKY/WX    TMP DP  RH WIND       PRES   REMARKS
NORTH PLATTE   CLOUDY    67  65  93 CALM      30.22F
IMPERIAL       CLOUDY    65  62  90 W3        30.26R
LEXINGTON      CLOUDY    67  65  94 NW3       30.21S
MCCOOK         CLOUDY    68  66  93 E3        30.22S FOG
$$

NEZ005>010-023>029-035>040-094-301000-
NORTH CENTRAL NEBRASKA

CITY           SKY/WX    TMP DP  RH WIND       PRES   REMARKS
VALENTINE      CLOUDY    62  59  90 W5        30.20F
AINSWORTH      CLOUDY    65  64  99 CALM      30.20F
BROKEN BOW     CLOUDY    65  65 100 CALM      30.21S
O`NEILL        CLOUDY    68  66  92 S7        30.21R
ORD            CLOUDY    68  65  90 E7        30.20S
THEDFORD       CLOUDY    65  64  94 SW5       30.23F
$$

NEZ041-046>049-061>064-073>077-083>087-301000-
SOUTH CENTRAL NEBRASKA

CITY           SKY/WX    TMP DP  RH WIND       PRES   REMARKS
GRAND ISLAND   CLOUDY    66  65  96 S3        30.21R
AURORA         PTCLDY    65  65 100 CALM      30.20R FOG
HASTINGS       MOCLDY    67  65  93 SW3       30.21S
HEBRON         LGT RAIN  68  67  98 CALM      30.17F
HOLDREGE       CLOUDY    67  65  95 S3        30.21S
KEARNEY *      CLOUDY    66  64  94 SE7       30.20F
YORK           FOG       66  66 100 CALM      30.19R VSB 1
$$

NEZ011>018-030>034-042>045-301000-
NORTHEAST NEBRASKA

CITY           SKY/WX    TMP DP  RH WIND       PRES   REMARKS
NORFOLK        CLOUDY    69  65  86 NE5       30.19R
ALBION         PTCLDY    67  65  94 CALM      30.20S
BLAIR          MOCLDY    69  68  97 N5        30.17R FOG
FREMONT        MOCLDY    68  68  98 CALM      30.17R FOG
TEKAMAH        PTCLDY    66  65  96 NE5       30.16S
WAYNE          CLOUDY    66  66  97 E3        30.19R
$$

NEZ050>053-065>068-078-088>093-301000-
SOUTHEAST NEBRASKA

CITY           SKY/WX    TMP DP  RH WIND       PRES   REMARKS
LINCOLN        MOCLDY    69  68  96 W3        30.15F
OMAHA EPPLEY   CLOUDY    70  67  90 CALM      30.16R
BEATRICE       PTCLDY    66  66  99 SW5       30.17S FOG
FALLS CITY     MOCLDY    70  69  97 SE3       30.14F
NEBRASKA CITY  CLOUDY    68  68 100 S5        30.16R
PLATTSMOUTH    CLOUDY    67  67 100 CALM      30.16R FOG
$$

NEZ044-045-051>053-067-301000-
OMAHA AREA

CITY           SKY/WX    TMP DP  RH WIND       PRES   REMARKS
OMAHA EPPLEY   CLOUDY    70  67  90 CALM      30.16R
BLAIR          MOCLDY    69  68  97 N5        30.17R FOG
FREMONT        MOCLDY    68  68  98 CALM      30.17R FOG
MILLARD        MOCLDY    70  69  96 CALM      30.16R
OFFUTT AFB     MOCLDY    68  68 100 NE3       30.15R
PLATTSMOUTH    CLOUDY    67  67 100 CALM      30.16R FOG
WAHOO          FAIR      69  67  94 N5        30.15R
$$




USA.gov is the U.S. government's official web portal to all federal, state and local government web resources and services.